sat.trackr.live / text

‹ back to catalog

STARLINK-5523

NORAD 56470 · 2023-064Y

PAYLOAD ACTIVE UNKNOWN

§ Identity

Operator
Country
US
Launch date
2023-05-10
Launch site
AFWTR
Launch vehicle
Mass (kg)
RCS (m²)

Purposes: comms

External: N2YO · Heavens-Above · Gunter

§ Orbital elements

Epoch: 2026-09-20T22:00:03.000096Z

Period
95.72 min
Inclination
70.0020°
Eccentricity
0.0003768
Mean motion
15.04449373 rev/d
Perigee alt
550.6 km
Apogee alt
555.8 km
Semi-major
6,931.3 km
B*
1.3875e-4
RAAN
352.3027°
Arg perigee
238.9457°
Mean anomaly
7.7421°
Rev number
576

§ Raw data

STARLINK-55231 56470U 23064Y   26263.91670139  .00001846  00000+0  13875-3 0  99972 56470  70.0020 352.3027 0003768 238.9457   7.7421 15.04449373  5766

JSON: /api/v1/satellites/56470 · /tle

For live sub-satellite position, see the globe view (requires WebGL).

§ Visibility from observer

Set your observer location to see the next 7 days of passes ≥ 10°. The values pass through the URL so the page stays shareable.

No JS? Fill the form by hand. The geolocation button needs JavaScript.